Погода в Читеко

Индонезия     6°41′23″S   106°55′53″E
темп.,
°C
ветер,
м/с
пор.,
м/с
влажн.,
%
обл.,
%
осадки,
мм/ч
давл.,
гПа
погр.,
м
2 марта, вт
вт201:00+20ссз1299100 1.3 101096
04:00+19сз2398100 1.8 1009133
07:00+20сз2295100 4.3 1011147
10:00+25сз227148 0.6 1012850
13:00+25сз237763 5.6 1009767
16:00+23зсз128396 4.9 1007457
19:00+21з119298 7.6 101023
22:00+19зсз1190100 0.6 101226
3 марта, ср
ср301:00+19зсз0186100 0.6 101023
04:00+19с1189100 0.0 100926
07:00+20ссв0184100 0.0 101026
10:00+25ссз226784 0.0 1011894
13:00+25ссз337379 1.3 1009876
16:00+22с2389100 4.0 1007441
19:00+20сз239796 6.8 1010166
22:00+20ссз239499 6.1 1012115
4 марта, чт
чт401:00+19ссз2493100 7.6 1011146
04:00+18сз2288100 0.3 101088
07:00+19с1187100 0.3 101271
10:00+26с126766 0.0 1012806
13:00+25ссз227376 1.3 1010836
16:00+23зюз128297 6.8 1008579
19:00+20юз229695 9.3 101082
22:00+20ююз1293100 0.1 101253
5 марта, пт
пт501:00+19ююз1184100 0.1 101123
04:00+19юз1275100 0.0 101023
07:00+19ююз227299 0.0 101132
10:00+28ю124892 0.0 1012913
13:00+30сз124869 0.0 10091558
16:00+24ссз238092 1.8 1007530
19:00+20ссз119696 4.8 100927
22:00+20з129799 1.9 101151
6 марта, сб
сб601:00+20зюз1197100 4.0 101028
04:00+19ююз1195100 0.6 100923
07:00+21з008785 0.6 101045
10:00+27с11651 0.2 1011920
13:00+24ссз228244 7.4 1009572
16:00+21з1294100 11.8 1008189
19:00+20ююз2399100 36.1 1010252
22:00+19с1198100 35.7 1012126